[[{"header":{"parameterUnit":"m.s-1","parameterCategory":1,"la1":30.2992,"la2":30.254,"lo1":-89.0895,"lo2":-89.0443,"dy":0.0025,"dx":0.0025,"nx":19,"ny":19,"refTime":"2026-04-24T03:00:00:Z","depth":0,"parameterNumber":2,"parameterNumberName":"U-component_of_WINDS"},"data":[0,0,0,-1.6633,-1.6635,-1.6713,-1.6713,-1.681,-1.6811,0,0,0,0,0,0,0,0,0,0,0,-1.6609,-1.661,-1.6633,-1.6635,-1.6712,-1.6713,-1.681,-1.6811,0,0,0,0,0,0,0,0,0,0,0,-1.6609,-1.661,-1.661,-1.6635,-1.6712,-1.6713,-1.681,-1.6752,0,0,0,0,0,0,0,0,0,0,-1.6677,-1.6653,-1.6609,-1.661,-1.6636,-1.6712,-1.6713,-1.6749,-1.6756,-1.6774,0,-1.679,0,-1.6802,-1.6817,-1.6818,0,0,0,-1.6636,-1.6648,-1.667,-1.661,-1.6637,-1.6712,-1.6678,-1.6753,-1.676,-1.6783,-1.6792,-1.6795,-1.6804,-1.6818,-1.6819,-1.6922,-1.6922,0,0,-1.6632,-1.6622,-1.6665,-1.6675,-1.6662,-1.6675,-1.668,-1.6757,-1.6767,-1.6792,-1.6798,-1.6805,-1.6819,-1.6819,-1.6921,-1.6922,0,0,0,-1.6619,-1.6619,-1.664,-1.6671,-1.6685,-1.6678,-1.6683,-1.6763,-1.677,-1.6799,-1.6807,-1.6819,-1.682,-1.6921,-1.6921,-1.6933,0,0,0,-1.6616,-1.6612,-1.6638,-1.6633,-1.6683,-1.6725,-1.6687,-1.6765,-1.6774,-1.6806,-1.6819,-1.6821,-1.692,-1.6921,-1.6932,-1.694,0,0,0,-1.6605,-1.661,-1.6621,-1.6632,-1.6665,-1.6724,-1.6736,-1.6767,-1.6779,-1.6818,-1.6822,-1.692,-1.6921,-1.693,-1.6938,-1.6963,0,0,0,-1.6589,-1.6631,-1.6621,-1.6671,-1.6664,-1.6731,-1.6735,-1.6785,-1.682,-1.682,-1.692,-1.6921,-1.693,-1.6937,-1.6962,-1.6982,-1.699,0,0,-1.6636,-1.6636,-1.6666,-1.666,-1.6725,-1.6719,-1.6787,-1.6828,-1.6841,-1.6894,-1.6897,-1.6932,-1.6938,-1.6963,-1.7039,-1.7045,0,0,0,-1.6678,-1.6699,-1.6719,-1.6751,-1.6783,-1.6811,-1.6843,-1.6859,-1.6904,-1.6866,-1.6949,-1.6953,-1.6968,-1.6978,-1.6983,-1.6997,-1.6926,-1.6926,-1.6926,-1.673,-1.6744,-1.6794,-1.6817,-1.6849,-1.6881,-1.6908,-1.6934,-1.6939,-1.6959,-1.6974,-1.7019,-1.703,-1.7034,-1.7048,-1.6987,-1.6987,-1.6987,-1.6987,-1.68,-1.6832,-1.6837,-1.6888,-1.6902,-1.6945,-1.6978,-1.698,-1.7022,-1.7008,-1.7022,-1.7005,-1.704,-1.7053,-1.6988,-1.6988,-1.6988,-1.6988,-1.6988,-1.6835,-1.6853,-1.6871,-1.6919,-1.6954,-1.6977,-1.7017,-1.7029,-1.704,-1.7055,-1.7072,-1.7072,-1.7072,-1.7062,-1.7062,-1.7062,-1.7063,-1.7063,-1.7063,-1.6864,-1.6884,-1.6916,-1.6953,-1.6975,-1.7006,-1.704,-1.7062,-1.709,-1.7096,-1.7096,-1.7098,-1.7042,-1.7027,-1.7065,-1.7065,-1.7064,-1.7064,-1.7064,-1.6928,-1.6915,-1.6964,-1.6986,-1.7031,-1.7066,-1.7081,-1.7126,-1.7146,-1.7165,-1.7165,-1.7122,-1.7122,-1.7118,-1.7106,-1.7163,-1.7163,-1.7163,-1.7163,-1.6957,-1.6958,-1.7011,-1.7045,-1.7081,-1.7099,-1.7154,-1.7181,-1.7206,-1.7219,-1.7213,-1.7198,-1.7193,-1.7197,-1.7191,-1.7179,-1.7254,-1.7254,-1.7254,-1.6996,-1.7002,-1.7046,-1.707,-1.7106,-1.7137,-1.7188,-1.7228,-1.7255,-1.7258,-1.723,-1.7226,-1.7202,-1.7193,-1.7195,-1.7185,-1.7164,0,0]},{"header":{"parameterUnit":"m.s-1","parameterCategory":1,"la1":30.2992,"la2":30.254,"lo1":-89.0895,"lo2":-89.0443,"dy":0.0025,"dx":0.0025,"nx":19,"ny":19,"refTime":"2026-04-24T03:00:00:Z","depth":0,"parameterNumber":3,"parameterNumberName":"V-component_of_WINDS"},"data":[0,0,0,4.2628,4.2625,4.2462,4.2461,4.2268,4.2266,0,0,0,0,0,0,0,0,0,0,0,4.2687,4.2686,4.2629,4.2625,4.2462,4.2461,4.2268,4.2266,0,0,0,0,0,0,0,0,0,0,0,4.2687,4.2686,4.2685,4.2624,4.2462,4.2461,4.2269,4.2386,0,0,0,0,0,0,0,0,0,0,4.2541,4.2605,4.2686,4.2685,4.2623,4.2463,4.2461,4.2391,4.2379,4.2349,0,4.2326,0,4.2294,4.2255,4.2254,0,0,0,4.2616,4.2616,4.2563,4.2685,4.2622,4.2463,4.2533,4.2384,4.237,4.2332,4.2323,4.2316,4.2291,4.2254,4.2253,4.2115,4.2115,0,0,4.2625,4.2662,4.2574,4.2555,4.2583,4.2538,4.2528,4.2375,4.2367,4.2323,4.2311,4.2287,4.2252,4.2251,4.2116,4.2115,0,0,0,4.2657,4.2669,4.2619,4.2563,4.2533,4.2534,4.2522,4.2374,4.2355,4.2309,4.2285,4.2251,4.2249,4.2116,4.2116,4.2141,0,0,0,4.2662,4.2687,4.2624,4.2645,4.2536,4.2451,4.2525,4.2366,4.2347,4.2286,4.2251,4.2247,4.2116,4.2116,4.2141,4.2146,0,0,0,4.2694,4.2691,4.2671,4.2647,4.2579,4.2453,4.2425,4.2361,4.2333,4.2254,4.2247,4.2116,4.2116,4.2141,4.2145,4.2122,0,0,0,4.2738,4.2693,4.2672,4.2613,4.258,4.2471,4.2426,4.2341,4.2277,4.225,4.2116,4.2116,4.214,4.2145,4.2122,4.2109,4.2107,0,0,4.2701,4.269,4.2652,4.2629,4.2534,4.2493,4.24,4.2304,4.2261,4.2166,4.2162,4.2141,4.2145,4.2122,4.2085,4.2084,0,0,0,4.2653,4.2627,4.2594,4.2536,4.2464,4.2403,4.2319,4.2284,4.2202,4.2221,4.2125,4.2126,4.2111,4.2103,4.2102,4.2087,4.2114,4.2114,4.2114,4.2653,4.2605,4.2541,4.2474,4.2418,4.2334,4.2284,4.2223,4.2186,4.2165,4.2136,4.212,4.2112,4.2111,4.2096,4.2125,4.2125,4.2126,4.2126,4.2596,4.2552,4.2511,4.2434,4.2383,4.2316,4.2235,4.2213,4.2143,4.2136,4.212,4.2117,4.2111,4.2095,4.2127,4.2127,4.2127,4.2126,4.2126,4.2591,4.2561,4.2523,4.2437,4.2376,4.2309,4.2247,4.2202,4.2158,4.2143,4.2108,4.2108,4.2102,4.213,4.213,4.213,4.213,4.213,4.213,4.26,4.2556,4.2509,4.2434,4.2393,4.2333,4.2251,4.2209,4.215,4.2122,4.2122,4.209,4.212,4.2129,4.2129,4.2129,4.2129,4.2129,4.2129,4.2559,4.2563,4.2491,4.2451,4.236,4.2304,4.2249,4.2169,4.2127,4.2098,4.207,4.21,4.2084,4.2084,4.2091,4.2081,4.2081,4.2081,4.2081,4.2554,4.2544,4.2463,4.2402,4.2336,4.2281,4.2203,4.214,4.2075,4.2047,4.2042,4.2048,4.2051,4.2032,4.2034,4.204,4.2016,4.2016,4.2016,4.2527,4.2509,4.2451,4.2391,4.2318,4.2256,4.2181,4.2112,4.2039,4.2013,4.2024,4.2027,4.2036,4.2041,4.2013,4.2016,4.2025,0,0]}]]